カタログに戻る

SL-8 DEB

運用中LEO
NORAD 25027·DEBRIS·🇷🇺 Russia

打ち上げ Aug 12, 1992 から Plesetsk Cosmodrome

Loading…

次のパス (今後24時間)

TLE

最新Source: Space-Track

元期: Sep 14, 2026, 07:10 UTC

1 25027U 92053D   26257.29891365  .00000558  00000-0  16954-3 0  9996
2 25027  74.0293 304.4895 0002754  24.2309 101.9308 14.44484992542062

AllMySatでSL-8 DEBをリアルタイム追跡

Download on the App Store